Weather Roundup
Issued by NWS

Home | Current Version | Previous Version | Graphics & Text | Print | Product List | Glossary Off
Versions: 1 2 3 4 5 6 7 8 9 10 11 12 13 14 15 16 17 18 19 20 21 22 23 24 25 26 27 28 29 30 31 32 33 34 35 36 37 38 39 40 41 42 43 44 45 46 47 48 49 50

455
NZUS93 KARX 252010
HRRWXR

CURRENT HOURLY OBSERVATIONS ACROSS
MUCH OF THE UPPER MISSISSIPPI VALLEY
NATIONAL WEATHER SERVICE LA CROSSE WI
300 PM CDT THU AUG 25 2016


...SOUTHEAST MINNESOTA...


CITY           SKY/WX    TMP DP  RH WIND       PRES   REMARKS
ROCHESTER      CLOUDY    75  60  59 W9        30.09S
ROCHESTER/MAYO FAIR      75  55  50 W13G20    30.07F
WINONA         PTSUNNY   77  57  50 W10       30.05S
AUSTIN         MOSUNNY   73  57  56 W6        30.09S
ALBERT LEA     MOSUNNY   73  59  60 W7        30.10S
DODGE CENTER   CLOUDY    75  57  53 W13       30.09S
PRESTON        CLOUDY    73  59  61 W12       30.09S
OWATONNA       CLOUDY    72  57  60 W8        30.09S
FARIBAULT      CLOUDY    72  57  60 W14       30.09S
$$

...ELSEWHERE IN MINNESOTA...


CITY           SKY/WX    TMP DP  RH WIND       PRES   REMARKS
MINNEAPOLIS    PTSUNNY   73  55  53 W16G22    30.05F
INTNL FALLS    CLOUDY    66  56  70 W13G20    29.90S
DULUTH         PTSUNNY   67  54  63 W20G26    29.98R
RED WING       MOSUNNY   75  52  43 W15       30.04S
REDWOOD FALLS  MOSUNNY   72  56  57 W17       30.10S
MANKATO        MOSUNNY   70  55  60 W12       30.10S
WORTHINGTON    SUNNY     71  58  63 W12G18    30.14S
FAIRMONT       CLOUDY    73  56  54 W10       30.11F
$$

...SOUTHWEST WISCONSIN...


CITY           SKY/WX    TMP DP  RH WIND       PRES   REMARKS
LA CROSSE      CLOUDY    79  60  52 SW10      30.04F
PRAIRIE DU CHI CLOUDY    77  60  56 W5        30.06F
BOSCOBEL       CLOUDY    78  61  55 SW7       30.06F
LONE ROCK      CLOUDY    77  60  55 NW6       30.06F
PLATTEVILLE    CLOUDY    75  63  65 NW5       30.07F
FORT MC COY    CLOUDY    77  60  57 SW6       30.05F
CAMP DOUGLAS   PTSUNNY   77  63  61 W12       30.04F
MAUSTON-NEW LI CLOUDY    78  62  58 W8        30.04F
VIROQUA        FAIR      75  62  63 SW9       30.08F
WIS DELLS      CLOUDY    76  61  60 SW10      30.06S
$$

...ELSEWHERE IN WISCONSIN...


CITY           SKY/WX    TMP DP  RH WIND       PRES   REMARKS
MILWAUKEE      PTSUNNY   82  62  50 E3        30.02F
MADISON        PTSUNNY   78  58  49 W7        30.05S
GREEN BAY      SUNNY     78  61  55 W14       29.99F
EAU CLAIRE     CLOUDY    77  56  48 W17G24    30.01F
BLACK RVR FLS  FAIR      78  59  51 SW9       30.03S
MEDFORD        CLOUDY    73  58  59 W12G22    30.01S
WAUSAU         MOSUNNY   77  57  50 W10G25    30.00S
WIS RAPIDS     PTSUNNY   79  59  50 W14       30.04S
MARSHFIELD     CLOUDY    77  58  51 W14G21    30.02S
RICE LAKE      MOSUNNY   71  53  52 W14G21    30.03S
$$

...NORTHEAST IOWA...


CITY           SKY/WX    TMP DP  RH WIND       PRES   REMARKS
WATERLOO       PTSUNNY   77  58  51 SW6       30.09R
DUBUQUE        PTSUNNY   78  62  57 NW5       30.08F
DECORAH        CLOUDY    73  63  68 VRB5      30.07F
MASON CITY     MOSUNNY   74  58  57 W9        30.12S
CHARLES CITY   CLOUDY    75  63  64 VRB6      30.10S
OELWEIN        CLOUDY    75  63  64 NW8       30.10S
$$

...ELSEWHERE IN IOWA...


CITY           SKY/WX    TMP DP  RH WIND       PRES   REMARKS
DES MOINES     CLOUDY    74  61  63 CALM      30.11R
IOWA CITY      CLOUDY    76  64  66 NW3       30.07F
FORT DODGE     PTSUNNY   75  63  64 SW6       30.13S
MARSHALLTOWN   CLOUDY    73  63  70 NW3       30.11R
CEDAR RAPIDS   MOSUNNY   76  65  68 CALM      30.06F
$$

...NORTHERN ILLINOIS...


CITY           SKY/WX    TMP DP  RH WIND       PRES   REMARKS
CHICAGO-OHARE  PTSUNNY   83  63  50 NW5       30.02F
CHICAGO-MIDWAY PTSUNNY   85  66  53 NW6       30.02F
MOLINE         NOT AVBL
ROCKFORD       CLOUDY    79  64  60 W7        30.06F
PEORIA         CLOUDY    80  74  81 W5        30.05F
$$

NOTE: "FAIR" INDICATES FEW OR NO CLOUDS BELOW 12,000 FEET WITH NO
SIGNIFICANT WEATHER AND/OR OBSTRUCTIONS TO VISIBILITY. WIND
SPEEDS ARE IN MILES-PER-HOUR.




USA.gov is the U.S. government's official web portal to all federal, state and local government web resources and services.